ヴォルフ彗星

14P/Wolf (2009)

English version
Home page
Total 6,336 html files since Dec. 4, 1995
Updated on August 12, 2008

---------------------------------------------------------------------

・ プロフィール

・ 軌道要素

The following orbital elements are taken from MPC 56802:

Epoch 2009 Feb. 18.0 TT = JDT 2454880.5
T 2009 Feb. 27.2521 TT                                  MPC
q   2.724119             (2000.0)            P               Q
n   0.1127751      Peri.  158.9886      +0.9840725      +0.0216460
a   4.242878       Node   202.1193      -0.0135631      +0.9988081
e   0.357955       Incl.   27.9434      +0.1772492      -0.0437481
P   8.74
From 137 observations 1950-2004, mean residual 0".7.

・ 光度変化

        m1 = 15.0 + 5 logΔ + 6.0 log r

---------------------------------------------------------------------

軌道要素はMPCのEphemerides and Orbital Elementsに掲載されたものです。
光度グラフはComet for Windowsで作成したものです。

---------------------------------------------------------------------

Copyright(C) 1995-2008 Seiichi Yoshida (comet@aerith.net). All rights reserved.